This demonstration page uses our WeatherBlox Daily Observations layout. Learn more.

Left ArrowRight Arrow

34.02893, -84.19858

Hourly Observations for March 31, 2016

Temp ( °F °C ) Dew Point ( °F °C ) Humidity (%) Winds ( mph kmh ) Pressure ( in mb ) Visibility ( mi km ) Precip ( " mm )
12:53 am 00:53 Mostly Cloudy 61 16.1 54 12.2 78 78 ESE 6 9 30.05 1018 10 16 0.00 0.00
1:31 am 01:31 Cloudy 62 16.7 55 12.8 78 78 ESE 7 11 30.03 1017 10 16 0.00 0.00
1:53 am 01:53 Cloudy 62 16.7 56 13.3 80 80 SE 8 13 30.02 1017 10 16 0.00 0.00
2:53 am 02:53 Cloudy 62 16.7 58 14.4 86 86 SE 10 17 29.99 1016 10 16 0.00 0.00
3:16 am 03:16 Cloudy 63 17.2 59 15 87 87 SE 12 19 29.97 1015 10 16 0.00 0.00
3:53 am 03:53 Cloudy 63 17.2 59 15 87 87 ESE 9 15 29.98 1015 10 16 0.00 0.00
4:53 am 04:53 Cloudy 63 17.2 59 15 87 87 SE 8 13 29.94 1014 10 16 0.00 0.00
5:53 am 05:53 Mostly Cloudy 63 17.2 59 15 87 87 SE 10 17 29.91 1013 10 16 0.00 0.00
6:53 am 06:53 Cloudy 63 17.2 59 15 87 87 SE 12 19 29.93 1013 10 16 0.00 0.00
7:01 am 07:01 Cloudy 63 17.2 59 15 87 87 SE 9 15 29.94 1014 10 16 0.00 0.00
7:53 am 07:53 Cloudy 64 17.8 60 15.6 87 87 SSE 7 11 29.96 1015 9 14 0.00 0.00
8:53 am 08:53 Cloudy 65 18.3 61 16.1 87 87 SSE 8 13 29.96 1015 10 16 0.00 0.00
9:53 am 09:53 Mostly Cloudy 67 19.4 62 16.7 84 84 SSE 13 20 29.94 1014 10 16 0.00 0.00
10:53 am 10:53 Cloudy 69 20.6 62 16.7 78 78 S 10 17 29.93 1014 10 16 0.00 0.00
11:53 am 11:53 Cloudy 71 21.7 62 16.7 73 73 S 15 24 29.90 1013 10 16 0.00 0.00
12:00 pm 12:00 Cloudy 70 21 63 17 78 78 S 9 15 29.91 1013 10 16 0.00 0.00
12:48 pm 12:48 Mostly Cloudy with Light Rain 72 22 63 17 73 73 S 10 17 29.91 1013 10 16 0.00 0.00
12:53 pm 12:53 Mostly Cloudy 71 21.7 62 16.7 73 73 S 13 20 29.90 1013 10 16 0.00 0.03
1:53 pm 13:53 Cloudy with Light Rain 68 20 62 16.7 81 81 S 10 17 29.88 1012 8 13 0.02 0.51
2:53 pm 14:53 Cloudy with Light Rain 66 18.9 63 17.2 90 90 S 8 13 29.87 1012 7 11 0.06 1.52
3:53 pm 15:53 Cloudy with Light Rain 65 18.3 62 16.7 90 90 S 7 11 29.85 1011 10 16 0.00 0.03
4:53 pm 16:53 Mostly Cloudy 69 20.6 62 16.7 78 78 VRB 3 6 29.85 1011 10 16 0.00 0.03
5:27 pm 17:27 Cloudy 68 20 62 16.7 81 81 NNW 3 6 29.85 1011 10 16 0.00 0.00
5:53 pm 17:53 Cloudy 69 20.6 61 16.1 76 76 Calm 29.84 1011 10 16 0.00 0.00
6:15 pm 18:15 Partly Cloudy 70 21.1 63 17.2 79 79 Calm 29.83 1010 10 16 0.00 0.00
6:53 pm 18:53 Mostly Sunny 70 21.1 63 17.2 79 79 S 8 13 29.81 1009 10 16 0.00 0.00
7:53 pm 19:53 Cloudy 69 20.6 63 17.2 81 81 SSE 6 9 29.80 1009 10 16 0.00 0.00
8:53 pm 20:53 Mostly Cloudy 68 20 63 17.2 84 84 SSE 7 11 29.81 1010 10 16 0.00 0.00
9:53 pm 21:53 Mostly Cloudy 67 19.4 64 17.8 91 91 SE 5 7 29.80 1009 10 16 0.00 0.00
10:53 pm 22:53 Mostly Cloudy 67 19.4 64 17.8 91 91 SSE 6 9 29.79 1009 10 16 0.00 0.00
11:40 pm 23:40 Cloudy 66 19 64 18 94 94 S 7 11 29.80 1009 10 16 0.00 0.00
11:53 pm 23:53 Cloudy with Nearby Thunderstorms 67 19.4 65 18.3 93 93 SSE 8 13 29.79 1009 8 13 0.00 0.03

Powered by AerisWeather